[[{"header":{"parameterUnit":"m.s-1","parameterCategory":1,"la1":30.2991,"la2":30.254,"lo1":-89.0895,"lo2":-89.0444,"dy":0.0017,"dx":0.0017,"nx":28,"ny":28,"refTime":"2025-04-20T21:00:00:Z","depth":0,"parameterNumber":2,"parameterNumberName":"U-component_of_WINDS"},"data":[0,0,0,0,0,0,0,0,0,0,0,0,0,0,0,0,0,0,0,0,0,0,0,0,0,0,0,0,0,0,0,0,0,0,0,0,0,0,0,0,0,0,0,0,0,0,0,0,0,0,0,0,0,0,0,0,0,0,-3.0018,-3.0018,0,-3.0077,-3.0078,-3.0078,-3.0061,-3.006,-3.0059,-3.0058,-3.0117,-3.012,-3.0122,0,0,0,0,0,0,0,0,0,0,0,0,0,-2.9889,-2.9892,-3.0018,-3.0018,-3.0019,-3.0077,-3.0078,-3.0079,-3.0062,-3.006,-3.0059,-3.0057,-3.0116,-3.0119,-3.0122,0,0,0,0,0,0,0,0,0,0,0,0,0,-2.9946,-2.9892,-3.0018,-3.0018,-3.0018,-3.0077,-3.0078,-3.0079,-3.0062,-3.006,-3.0058,-3.0057,-3.0115,-3.0119,-3.0123,-3.0184,0,0,-3.0135,-3.0137,0,0,0,0,0,0,0,0,-2.9943,-2.9951,-3.0017,-3.0018,-3.0019,-3.006,-3.0054,-3.0114,-3.0062,-3.0045,-3.0058,-3.0056,-3.0099,-3.0105,-3.012,-3.0187,-3.0189,-3.0136,-3.0138,-3.014,-3.0141,0,0,0,0,0,0,0,-2.9939,-2.9948,-3.0041,-3.0018,-3.0019,-3.0015,-3.0021,-3.0065,-3.0082,-3.0047,-3.0046,-3.0053,-3.0099,-3.0116,-3.0121,-3.019,-3.0135,-3.0139,-3.0142,-3.0143,-3.0311,-3.0313,0,0,0,0,0,0,-2.9935,-2.9945,-3.0039,-3.0043,-2.9976,-3.0018,-3.0025,-3.0049,-3.0081,-3.0084,-3.0054,-3.0052,-3.011,-3.0116,-3.0123,-3.0196,-3.014,-3.0144,-3.0146,-3.0309,-3.0311,-3.0314,0,0,0,0,0,0,-2.9932,-2.9943,-3.0037,-2.9994,-3.0005,-3.0023,-3.0049,-3.0051,-3.0067,-3.0087,-3.009,-3.0068,-3.0109,-3.0117,-3.0169,-3.0198,-3.0145,-3.0149,-3.0307,-3.031,-3.0313,-3.0343,0,0,0,0,0,0,-2.9928,-2.9942,-2.9966,-2.9995,-3.0008,-3.0082,-3.0051,-3.0053,-3.0074,-3.0071,-3.0101,-3.0104,-3.0108,-3.0163,-3.0173,-3.0202,-3.0152,-3.0304,-3.0308,-3.0312,-3.034,-3.0347,-3.0353,0,0,0,0,0,-2.9924,-2.9972,-2.9967,-2.9979,-3.0037,-3.0084,-3.0091,-3.0096,-3.0077,-3.01,-3.0113,-3.0103,-3.0194,-3.0169,-3.018,-3.0211,-3.0302,-3.0307,-3.0311,-3.0337,-3.0345,-3.0353,0,0,0,0,0,0,-2.9945,-2.9975,-2.9971,-3.0029,-3.0054,-3.0081,-3.011,-3.0105,-3.0135,-3.0131,-3.0135,-3.0142,-3.0195,-3.0209,-3.018,-3.0272,-3.0245,-3.0252,-3.0261,-3.0269,-3.0276,-3.027,-3.0156,0,0,0,0,0,-2.9957,-2.9992,-3.0017,-3.0066,-3.0079,-3.0093,-3.0113,-3.0115,-3.014,-3.0151,-3.0168,-3.0193,-3.0227,-3.0249,-3.0282,-3.0343,-3.0348,-3.037,-3.0376,-3.0382,-3.0387,-3.042,-3.0429,-3.0329,-3.0329,-3.0329,0,0,-2.998,-3.0002,-3.0024,-3.0071,-3.009,-3.0127,-3.0102,-3.0141,-3.0168,-3.0157,-3.0206,-3.022,-3.0248,-3.0305,-3.0331,-3.0318,-3.0416,-3.0388,-3.0392,-3.0394,-3.0425,-3.0435,-3.0443,-3.0332,-3.0331,-3.0331,0,0,-3.0042,-3.0062,-3.0105,-3.0126,-3.0156,-3.0166,-3.0176,-3.0204,-3.0213,-3.0264,-3.0256,-3.0288,-3.0347,-3.0367,-3.0386,-3.0458,-3.0449,-3.0468,-3.0502,-3.0534,-3.0542,-3.0549,-3.0573,-3.0582,-3.0474,-3.0474,-3.0474,0,-3.0067,-3.0122,-3.0128,-3.0168,-3.0189,-3.0182,-3.0226,-3.0245,-3.0284,-3.0299,-3.0284,-3.0359,-3.0378,-3.0438,-3.0456,-3.0472,-3.0483,-3.0463,-3.0541,-3.0548,-3.0554,-3.0577,-3.0587,-3.0476,-3.0476,-3.0476,-3.0476,0,-3.0152,-3.019,-3.0221,-3.026,-3.0285,-3.0326,-3.0338,-3.0363,-3.0363,-3.0374,-3.0425,-3.0448,-3.0485,-3.05,-3.05,-3.0561,-3.0552,-3.054,-3.0512,-3.0566,-3.0587,-3.0596,-3.0479,-3.0478,-3.0478,-3.0477,0,0,-3.0225,-3.0268,-3.0279,-3.0297,-3.0331,-3.036,-3.0402,-3.0439,-3.046,-3.0488,-3.0522,-3.0574,-3.0562,-3.0583,-3.0586,-3.0614,-3.0668,-3.0598,-3.0598,-3.0608,-3.0736,-3.0743,-3.0754,-3.0664,-3.0666,-3.0667,-3.0733,0,-3.0288,-3.0362,-3.0369,-3.0435,-3.047,-3.0465,-3.0501,-3.0526,-3.0538,-3.0569,-3.0582,-3.0618,-3.0601,-3.0613,-3.0642,-3.0656,-3.0693,-3.0651,-3.0695,-3.0696,-3.0685,-3.0765,-3.0773,-3.0834,-3.0742,-3.0743,-3.0744,0,-3.0371,-3.0402,-3.0471,-3.0501,-3.0516,-3.0549,-3.0583,-3.0614,-3.0642,-3.0649,-3.0673,-3.0673,-3.0715,-3.0689,-3.0748,-3.0719,-3.0738,-3.0748,-3.075,-3.0752,-3.0721,-3.0767,-3.0854,-3.0862,-3.0758,-3.0757,-3.0756,0,-3.0416,-3.0475,-3.0524,-3.054,-3.0576,-3.0599,-3.0615,-3.0642,-3.0664,-3.0695,-3.0709,-3.0744,-3.0763,-3.079,-3.0799,-3.078,-3.0858,-3.0832,-3.0863,-3.0863,-3.0877,-3.0876,-3.0966,-3.0894,-3.0894,-3.0893,-3.0893,0,-3.0484,-3.0526,-3.0545,-3.0575,-3.0622,-3.0631,-3.0677,-3.0692,-3.0716,-3.0749,-3.0747,-3.0778,-3.0789,-3.0822,-3.0829,-3.0876,-3.0885,-3.0891,-3.0892,-3.089,-3.0889,-3.09,-3.0895,-3.0896,-3.0895,-3.0895,-3.0894,0,-3.054,-3.0555,-3.0608,-3.0639,-3.0647,-3.0681,-3.0707,-3.0735,-3.0748,-3.0789,-3.0799,-3.0819,-3.0857,-3.087,-3.0916,-3.0921,-3.0975,-3.0974,-3.0965,-3.0965,-3.0995,-3.0991,-3.1093,-3.1106,-3.1028,-3.1028,-3.1029,0,-3.0582,-3.0614,-3.0649,-3.0671,-3.0688,-3.0723,-3.0746,-3.0757,-3.0781,-3.0816,-3.084,-3.0879,-3.0909,-3.0971,-3.0989,-3.1024,-3.1022,-3.1056,-3.1027,-3.1024,-3.1021,-3.1017,-3.102,-3.106,-3.1061,-3.1062,-3.1062,0,-3.0653,-3.0659,-3.0692,-3.0728,-3.0756,-3.0784,-3.0812,-3.083,-3.0845,-3.0872,-3.0911,-3.0935,-3.0983,-3.1021,-3.1057,-3.1074,-3.107,-3.1072,-3.108,-3.1077,-3.107,-3.1072,-3.0977,-3.1068,-3.1068,-3.1067,-3.1067,-3.1067,-3.0702,-3.0731,-3.0759,-3.0796,-3.0819,-3.0845,-3.0874,-3.089,-3.0924,-3.0963,-3.0968,-3.101,-3.1039,-3.1087,-3.1106,-3.1139,-3.1129,-3.1142,-3.1145,-3.1148,-3.1149,-3.1067,-3.1146,-3.1146,-3.1146,-3.1146,-3.1145,0,-3.0772,-3.0791,-3.0825,-3.0864,-3.0893,-3.0889,-3.092,-3.0945,-3.0982,-3.1009,-3.104,-3.1085,-3.1122,-3.1144,-3.1181,-3.1203,-3.1203,-3.1212,-3.121,-3.1213,-3.1157,-3.1144,-3.1212,-3.1212,-3.1212,-3.1212,-3.1212,-3.1212,-3.0811,-3.0859,-3.0869,-3.0928,-3.0946,-3.0988,-3.1006,-3.103,-3.1051,-3.1102,-3.1133,-3.1148,-3.1173,-3.1212,-3.1245,-3.1251,-3.1264,-3.1274,-3.1278,-3.1224,-3.1217,-3.1211,-3.1199,-3.1277,-3.1277,-3.1332,-3.1332,-3.1333]},{"header":{"parameterUnit":"m.s-1","parameterCategory":1,"la1":30.2991,"la2":30.254,"lo1":-89.0895,"lo2":-89.0444,"dy":0.0017,"dx":0.0017,"nx":28,"ny":28,"refTime":"2025-04-20T21:00:00:Z","depth":0,"parameterNumber":3,"parameterNumberName":"V-component_of_WINDS"},"data":[0,0,0,0,0,0,0,0,0,0,0,0,0,0,0,0,0,0,0,0,0,0,0,0,0,0,0,0,0,0,0,0,0,0,0,0,0,0,0,0,0,0,0,0,0,0,0,0,0,0,0,0,0,0,0,0,0,0,3.057,3.0571,0,3.0668,3.0669,3.067,3.0705,3.0705,3.0705,3.0704,3.0798,3.0801,3.0804,0,0,0,0,0,0,0,0,0,0,0,0,0,3.0411,3.0414,3.057,3.0572,3.0573,3.0668,3.0669,3.0671,3.0705,3.0705,3.0704,3.0704,3.0797,3.0801,3.0804,0,0,0,0,0,0,0,0,0,0,0,0,0,3.0491,3.0415,3.057,3.0602,3.0606,3.0668,3.0669,3.0671,3.0705,3.0705,3.0704,3.0704,3.0796,3.08,3.0805,3.0841,0,0,3.0817,3.0819,0,0,0,0,0,0,0,0,3.0487,3.0497,3.0596,3.06,3.0604,3.0674,3.0648,3.0728,3.0706,3.0667,3.0704,3.0704,3.0757,3.0764,3.0784,3.0845,3.0849,3.0818,3.082,3.0822,3.0823,0,0,0,0,0,0,0,3.0481,3.0493,3.0609,3.0597,3.0602,3.061,3.0621,3.0663,3.0713,3.0671,3.0673,3.0685,3.0759,3.0779,3.0786,3.085,3.0818,3.0822,3.0824,3.0826,3.0949,3.095,0,0,0,0,0,0,3.0471,3.0488,3.0606,3.0612,3.0543,3.0613,3.0626,3.0652,3.0713,3.0722,3.0685,3.0686,3.0773,3.0781,3.079,3.0838,3.0822,3.0826,3.0829,3.0948,3.0949,3.095,0,0,0,0,0,0,3.0467,3.0481,3.0602,3.0551,3.0567,3.0617,3.0646,3.0654,3.0675,3.0724,3.0733,3.0697,3.0772,3.0784,3.0829,3.0842,3.0828,3.0832,3.0947,3.0949,3.095,3.0933,0,0,0,0,0,0,3.0463,3.0479,3.0494,3.0551,3.057,3.064,3.0647,3.0656,3.0683,3.0685,3.0738,3.0746,3.0773,3.0822,3.0833,3.0847,3.0835,3.0947,3.0948,3.0949,3.0933,3.0934,3.0934,0,0,0,0,0,3.0457,3.0484,3.0495,3.0509,3.0589,3.0641,3.0651,3.0684,3.0683,3.0698,3.0731,3.0744,3.0838,3.0827,3.0839,3.0854,3.0946,3.0948,3.0949,3.0932,3.0933,3.0934,0,0,0,0,0,0,3.0424,3.0491,3.0504,3.0551,3.059,3.0647,3.0666,3.0683,3.0722,3.0722,3.0759,3.077,3.0813,3.0838,3.0824,3.0894,3.0893,3.0897,3.0876,3.0877,3.0878,3.0871,3.0839,0,0,0,0,0,3.0423,3.046,3.0517,3.0552,3.0572,3.0616,3.0639,3.0661,3.0703,3.0719,3.0754,3.0793,3.0831,3.0856,3.0893,3.0937,3.0949,3.0954,3.0954,3.0955,3.0958,3.0985,3.0988,3.0956,3.0956,3.0956,0,0,3.0419,3.0461,3.0482,3.0547,3.058,3.0618,3.0629,3.0668,3.0696,3.0724,3.077,3.0798,3.0843,3.0888,3.0909,3.091,3.097,3.0957,3.0957,3.096,3.0987,3.099,3.0993,3.0957,3.0957,3.0956,0,0,3.0432,3.0467,3.0502,3.0536,3.0588,3.0617,3.0626,3.0681,3.0701,3.0748,3.0771,3.0804,3.0869,3.0902,3.0927,3.0956,3.0971,3.0967,3.0971,3.0997,3.1,3.1002,3.1014,3.1018,3.097,3.097,3.097,0,3.0421,3.048,3.0517,3.0556,3.0585,3.0615,3.0651,3.0681,3.0741,3.076,3.076,3.0845,3.0877,3.0932,3.094,3.0958,3.0969,3.0961,3.0997,3.1,3.1002,3.1014,3.1019,3.097,3.097,3.097,3.097,0,3.0465,3.0506,3.0528,3.0589,3.0619,3.0656,3.0698,3.0725,3.0745,3.0775,3.0823,3.0864,3.0912,3.0926,3.0945,3.0984,3.0983,3.099,3.099,3.1004,3.1016,3.1021,3.0969,3.0969,3.0969,3.097,0,0,3.0458,3.0542,3.0549,3.0579,3.0639,3.0671,3.071,3.076,3.0782,3.0823,3.0857,3.0913,3.0921,3.0949,3.0972,3.0995,3.1018,3.0999,3.1,3.1002,3.1066,3.1061,3.1066,3.1028,3.1029,3.103,3.1063,0,3.048,3.0553,3.0589,3.0646,3.0685,3.0716,3.075,3.0791,3.082,3.0857,3.0888,3.0929,3.0935,3.0953,3.0976,3.101,3.1032,3.1008,3.106,3.1061,3.1048,3.1072,3.1067,3.1095,3.1067,3.1068,3.1069,0,3.0515,3.056,3.0622,3.0681,3.0698,3.0729,3.0779,3.0814,3.0861,3.0881,3.0914,3.0937,3.0979,3.0977,3.1035,3.1019,3.1042,3.1062,3.1064,3.107,3.1066,3.108,3.1105,3.111,3.1076,3.1076,3.1075,0,3.0506,3.0581,3.0629,3.0653,3.0722,3.0743,3.0773,3.082,3.0848,3.0892,3.0911,3.0957,3.0983,3.1018,3.1053,3.1048,3.1109,3.1108,3.1127,3.1126,3.1138,3.1137,3.1168,3.1152,3.1151,3.1151,3.1151,0,3.0527,3.0564,3.0626,3.0655,3.0698,3.0739,3.078,3.0811,3.0854,3.0889,3.0918,3.095,3.0994,3.1032,3.106,3.1105,3.1116,3.1133,3.114,3.1131,3.1129,3.1147,3.1146,3.1153,3.1152,3.1152,3.1152,0,3.0523,3.0566,3.0621,3.0684,3.0701,3.073,3.0783,3.0813,3.0845,3.089,3.0902,3.0952,3.0999,3.1038,3.1098,3.1116,3.1164,3.1172,3.1149,3.1153,3.1169,3.1168,3.1214,3.1223,3.1199,3.1199,3.1199,0,3.0534,3.0564,3.0632,3.0659,3.069,3.0732,3.0763,3.0805,3.0836,3.0894,3.0917,3.0966,3.1008,3.1081,3.1122,3.1168,3.1178,3.1191,3.1185,3.1176,3.118,3.1178,3.1182,3.1191,3.1191,3.1191,3.1191,0,3.055,3.0571,3.0615,3.0668,3.0705,3.0747,3.079,3.0811,3.0861,3.0894,3.0944,3.0976,3.104,3.1089,3.1141,3.1171,3.1189,3.1193,3.12,3.1191,3.1178,3.1187,3.1151,3.1192,3.1192,3.1192,3.1192,3.1192,3.0554,3.0584,3.0637,3.0686,3.0724,3.0765,3.0797,3.0835,3.0878,3.0935,3.0957,3.1008,3.1057,3.1129,3.1159,3.12,3.1202,3.1211,3.1214,3.1216,3.1215,3.1172,3.1209,3.1209,3.1209,3.1209,3.1209,0,3.0572,3.0609,3.0654,3.0716,3.0755,3.0773,3.0823,3.0854,3.09,3.0944,3.0987,3.1045,3.1093,3.1139,3.119,3.1214,3.1224,3.1226,3.1224,3.1231,3.121,3.1199,3.1217,3.1217,3.1217,3.1217,3.1217,3.1217,3.0586,3.0638,3.0665,3.0736,3.0772,3.0825,3.0853,3.0891,3.0927,3.0992,3.1034,3.1065,3.111,3.1166,3.1211,3.1223,3.1241,3.1241,3.1255,3.1234,3.1232,3.1231,3.1222,3.1244,3.1244,3.1274,3.1274,3.1274]}]]